TimeEDT,TemperatureF,Dew PointF,Humidity,Sea Level PressureIn,VisibilityMPH,Wind Direction,Wind SpeedMPH,Gust SpeedMPH,PrecipitationIn,Events,Conditions,WindDirDegrees,DateUTC
12:51 AM,73.9,66.0,76,29.85,10.0,South,6.9,-,N/A,,Clear,190,2013-05-22 04:51:00
1:51 AM,72.0,66.0,81,29.85,10.0,South,6.9,-,N/A,,Clear,190,2013-05-22 05:51:00
2:51 AM,71.1,66.9,87,29.84,10.0,South,5.8,-,N/A,,Clear,190,2013-05-22 06:51:00
3:51 AM,71.1,66.9,87,29.85,10.0,SE,4.6,-,N/A,,Clear,140,2013-05-22 07:51:00
4:21 AM,71.6,66.2,83,29.85,9.0,SSE,3.5,-,N/A,,Mostly Cloudy,150,2013-05-22 08:21:00
4:51 AM,68.0,64.0,87,29.86,9.0,East,6.9,-,N/A,,Overcast,100,2013-05-22 08:51:00
5:30 AM,64.4,60.8,88,29.87,4.0,East,3.5,-,N/A,,Overcast,80,2013-05-22 09:30:00
5:47 AM,62.6,59.0,88,29.89,4.0,East,9.2,-,N/A,,Overcast,80,2013-05-22 09:47:00
5:51 AM,62.1,59.0,90,29.89,3.0,East,9.2,-,N/A,,Overcast,80,2013-05-22 09:51:00
6:51 AM,59.0,57.0,93,29.93,3.0,ENE,6.9,-,N/A,,Overcast,70,2013-05-22 10:51:00
7:39 AM,59.0,57.2,94,29.92,3.0,Variable,4.6,-,N/A,,Overcast,0,2013-05-22 11:39:00
7:51 AM,59.0,57.0,93,29.93,3.0,East,4.6,-,N/A,,Overcast,80,2013-05-22 11:51:00
8:51 AM,61.0,57.9,90,29.93,3.0,SE,9.2,-,0.00,,Light Drizzle,130,2013-05-22 12:51:00
9:03 AM,60.8,57.2,88,29.92,2.5,ESE,4.6,-,0.00,,Light Drizzle,110,2013-05-22 13:03:00
9:24 AM,60.8,57.2,88,29.92,3.0,Calm,Calm,-,0.00,,Light Drizzle,0,2013-05-22 13:24:00
9:51 AM,62.1,59.0,90,29.92,3.0,SSW,3.5,-,0.00,,Light Drizzle,200,2013-05-22 13:51:00
10:21 AM,62.6,59.0,88,29.93,1.5,Calm,Calm,-,0.00,,Light Drizzle,0,2013-05-22 14:21:00
10:51 AM,66.0,60.1,81,29.92,2.0,Calm,Calm,-,0.00,,Haze,0,2013-05-22 14:51:00
11:10 AM,66.2,60.8,83,29.92,2.0,Variable,3.5,-,N/A,,Haze,0,2013-05-22 15:10:00
11:51 AM,69.1,62.1,78,29.91,2.0,Calm,Calm,-,N/A,,Haze,0,2013-05-22 15:51:00
12:51 PM,72.0,64.0,76,29.90,4.0,SW,3.5,-,N/A,,Haze,230,2013-05-22 16:51:00
1:51 PM,77.0,66.0,69,29.88,4.0,SSE,9.2,16.1,N/A,,Haze,160,2013-05-22 17:51:00
2:31 PM,77.0,66.2,69,29.87,3.0,South,8.1,24.2,N/A,,Haze,190,2013-05-22 18:31:00
2:51 PM,75.9,66.0,71,29.87,3.0,SSE,8.1,-,N/A,,Haze,160,2013-05-22 18:51:00
3:31 PM,77.0,66.2,69,29.85,4.0,South,8.1,-,N/A,,Haze,180,2013-05-22 19:31:00
3:51 PM,77.0,66.9,71,29.84,4.0,South,8.1,-,N/A,,Haze,180,2013-05-22 19:51:00
3:58 PM,77.0,68.0,74,29.84,4.0,South,8.1,-,N/A,,Haze,170,2013-05-22 19:58:00
4:51 PM,79.0,69.1,72,29.84,5.0,South,9.2,-,N/A,,Haze,190,2013-05-22 20:51:00
5:51 PM,80.1,69.1,69,29.82,4.0,South,9.2,-,N/A,,Haze,180,2013-05-22 21:51:00
6:51 PM,79.0,69.1,72,29.83,6.0,SSE,5.8,-,N/A,,Haze,150,2013-05-22 22:51:00
7:51 PM,79.0,68.0,69,29.83,10.0,SE,6.9,-,N/A,,Clear,140,2013-05-22 23:51:00
8:51 PM,73.9,66.0,76,29.84,10.0,SE,8.1,-,N/A,,Clear,130,2013-05-23 00:51:00
9:51 PM,72.0,64.9,78,29.86,8.0,South,3.5,-,N/A,,Clear,180,2013-05-23 01:51:00
10:51 PM,73.0,66.0,79,29.87,10.0,South,3.5,-,N/A,,Clear,190,2013-05-23 02:51:00
11:51 PM,73.0,66.9,81,29.86,8.0,South,4.6,-,N/A,,Clear,190,2013-05-23 03:51:00